Погода в Алое

Латвия     57°46′19″N   24°53′11″E
темп.,
°C
ветер,
м/с
пор.,
м/с
влажн.,
%
обл.,
%
осадки,
мм/ч
давл.,
гПа
погр.,
м
5 марта, пт
пт523:00−2зсз497625 0.0 1010894
02:00−3сз5108455 0.1 1011761
05:00−4ссз596092 0.1 10121112
08:00−4сз495246 0.1 1013844
11:00−1сз36420 0.0 10151495
14:000сз464239 0.0 10151677
17:00−2ссз3554100 0.1 10161198
20:00−4с385175 0.1 1019476
6 марта, сб
сб623:00−5сз25610 0.0 1021250
02:00−5зсз25720 0.0 1022185
05:00−6з25790 0.0 1022159
08:00−5зюз38770 0.0 1021297
11:000зюз6105128 0.0 10191246
14:00+1зюз7145464 0.0 10161465
17:00+1зюз81751100 0.0 10121420
20:000зюз81766100 0.0 10081316
7 марта, вс
вс723:000зюз81594100 1.1 10041100
02:00−2сз71381100 4.3 10031279
05:00−5зсз5125652 0.0 10041486
08:00−4з6126136 0.0 10041304
11:00−1зсз8145257 0.2 10032068
14:00−1з9145179 0.4 10002249
17:00−2сз91561100 0.4 10001718
20:00−5сз6127196 0.4 10031201
8 марта, пн
пн823:00−5ссз4880100 0.1 1006918
02:00−6ссз378199 0.1 1008763
05:00−7сз268843 0.0 1010451
08:00−8с477672 0.1 1012926
11:00−6с4769100 0.1 10141042
14:00−5с5858100 0.1 10171240
17:00−6с475455 0.0 10181238
20:00−8с386827 0.0 1021442
9 марта, вт
вт923:00−9ссз22760 0.0 102368
02:00−9зсз22770 0.0 102450
05:00−9з22756 0.0 102450
08:00−8зюз247715 0.0 1025120
11:00−2з46551 0.0 1025873
14:00−1з57530 0.0 1025987
17:00−2зюз485523 0.0 1024962
20:00−4зюз4117012 0.0 1025474